Location: Heyerh�fen
(53.4532°N, 8.7983°E)
Time: 00:04:56
(UTC+00:00)

Daily predictions for brighter satellites

Satellite Brightness Start Highest point End
(mag) Time Altitude Azimuth Time Altitude Azimuth Time Altitude Azimuth
SL-16 R/B 3.0 00:12:20 53° ENE 00:12:20 53° ENE 00:18:09 10° N
Cosmos 1943 Rocket 3.2 00:17:17 41° NNW 00:17:17 41° NNW 00:21:30 10° NNE
COSMOS 2455 4.1 00:18:59 33° NW 00:19:46 34° NNW 00:25:15 10° NE
CZ-2D R/B 3.7 00:17:03 10° NNE 00:20:45 28° ENE 00:20:45 28° ENE
ATLAS 5 CENTAUR R/B 4.2 00:26:24 15° ENE 00:26:24 15° ENE 00:27:24 10° ENE
Cosmos 2297 Rocket 3.0 00:23:39 10° NNW 00:28:49 49° NE 00:28:49 49° NE
Resurs 1-4 Rocket 3.3 00:30:58 10° NNE 00:34:54 35° ENE 00:34:54 35° ENE
NOSS 3-1 (A) 4.2 00:32:13 10° NW 00:37:40 55° WNW 00:37:40 55° WNW
Cosmos 2369 Rocket 3.1 00:41:05 43° NNW 00:41:05 43° NNW 00:45:42 10° NNE
Nadezhda 1 Rocket 4.2 00:42:42 66° NNE 00:42:42 66° NNE 00:47:53 10° N
Gbstr 26 Del rocket 4.4 00:44:53 74° SE 00:44:53 74° SE 00:52:20 10° E
CZ-4C R/B 3.4 00:47:10 36° NW 00:48:23 40° NNW 00:54:47 10° NE
ATLAS 2AS CENTAUR R/B 4.1 00:50:40 10° WNW 00:58:00 39° N 01:04:58 10° ENE
Cosmos 2221 4.2 01:06:06 32° NNE 01:06:06 32° NNE 01:08:27 10° NNE
SL-8 Rocket 3.9 01:06:00 10° N 01:12:12 85° NE 01:12:12 85° NE
Sich 1 4.5 01:16:17 10° N 01:18:55 35° NNE 01:18:55 35° NNE
Meteor 2-2 Rocket 4.2 01:23:00 80° NE 01:23:00 80° NE 01:28:32 10° NNE
Cosmos 2218 Rocket 3.9 01:17:14 10° N 01:23:41 88° ENE 01:24:06 80° SSE
Cosmos 2366 rocket 3.9 01:19:51 10° N 01:26:11 88° E 01:26:34 80° SSE
Cosmos 2227 Rocket 2.5 01:20:40 10° NNW 01:25:13 59° NNW 01:25:13 59° NNW
Cosmos 1656 4.4 01:30:38 40° ESE 01:30:59 40° ESE 01:36:06 10° NE
Lacrosse 5 3.9 01:32:48 17° ESE 01:32:48 17° ESE 01:35:47 10° E
USA 234 3.1 01:27:09 10° ESE 01:33:43 84° SSW 01:37:44 26° WNW
ADEOS II 2.6 01:32:45 10° NNE 01:37:55 52° E 01:38:28 50° ESE
Cosmos 2219 4.2 01:34:25 10° NW 01:37:44 35° NW 01:37:44 35° NW
CZ-4B R/B 3.8 01:35:31 10° NNE 01:40:31 57° ESE 01:40:47 57° ESE
Cosmos 864 Rocket 4.3 01:37:08 10° NNW 01:43:17 75° W 01:43:29 74° WSW
Cosmos 1302 Rocket 4.2 01:44:28 61° NW 01:44:28 61° NW 01:49:16 10° NNE
NOSS 2-2 (C) 4.3 01:41:19 10° NW 01:46:23 77° NE 01:53:27 10° SE
SL-08 R/B 3.6 01:47:13 58° ESE 01:47:43 62° ENE 01:52:19 10° N
Cosmos 2181 Rocket 3.8 01:47:57 72° SW 01:48:30 79° WNW 01:54:45 10° N
Cosmos 1633 Rocket 3.5 01:45:04 10° N 01:48:58 59° NE 01:48:58 59° NE
IDEFIX/ARIANE 42P 4.2 01:46:06 10° NNE 01:50:42 30° E 01:53:40 18° SE
Cosmos 1666 Rocket 4.0 01:50:06 10° N 01:53:47 59° N 01:53:47 59° N
Cosmos 1959 Rocket 4.4 01:49:11 10° NNW 01:55:10 60° W 01:55:10 60° W
Cosmos 1241 Rocket 4.4 01:54:48 66° SSW 01:55:48 85° SE 02:02:17 10° NE
SL-16 R/B 3.4 01:57:26 33° WNW 01:57:26 33° WNW 02:01:42 10° NNW
Cosmos 1606 3.6 01:59:13 46° NE 01:59:13 46° NE 02:02:07 10° NNE
ATLAS CENTAUR R/B 4.2 01:42:16 12° W 01:59:38 73° N 02:06:00 10° ENE
ARIANE 5 R/B 3.5 01:55:04 10° NNE 01:59:56 42° E 02:01:51 30° SE
IRS-1D 3.5 01:55:42 10° NNE 02:01:06 84° ESE 02:01:48 68° S
Cosmos 1943 Rocket 4.2 01:58:47 14° NW 02:01:16 18° NNW 02:04:59 10° NNE
Cosmos 1151 Rocket 3.9 02:00:38 40° ESE 02:01:16 43° E 02:05:24 10° NNE
CZ-2D R/B 2.3 01:56:53 10° N 02:02:03 53° WNW 02:02:03 53° WNW
AQUA 3.9 01:57:44 10° N 02:02:08 64° NW 02:02:08 64° NW
ATLAS 5 CENTAUR R/B 1.7 02:07:56 67° NNW 02:07:56 67° NNW 02:12:43 10° NE
NPP 3.8 02:02:54 10° N 02:08:11 56° WNW 02:08:28 56° W
Genesis I 3.8 02:12:59 52° N 02:12:59 52° N 02:16:11 10° NE
Cosmos 2297 Rocket 3.5 02:07:57 10° NW 02:10:32 25° WNW 02:10:32 25° WNW
CBERS-1 3.9 02:08:09 10° NNE 02:13:18 84° WNW 02:13:59 68° SW
Resurs 1-4 Rocket 2.6 02:10:51 10° N 02:15:47 42° WNW 02:15:58 41° WNW
Cosmos 2082 3.6 02:11:58 10° NW 02:17:38 68° WSW 02:20:24 31° S
Cosmos 1933 3.5 02:18:15 65° ESE 02:18:29 67° E 02:22:33 10° NNE
USA 305 4.4 02:22:42 25° SE 02:22:48 25° SE 02:26:18 10° E
Cosmos 2369 Rocket 4.2 02:22:52 13° WNW 02:25:43 18° NNW 02:29:32 10° NNE
USA 306 4.3 02:26:37 26° SSE 02:26:50 26° SE 02:30:24 10° E
CZ-2D R/B 4.3 02:23:03 10° NNE 02:27:06 47° E 02:28:44 31° SSE
X-37B 3.5 02:29:08 10° SE 02:29:08 10° SE 02:29:12 10° SE
SJ 16-02 2.9 02:23:45 10° NNW 02:27:51 37° NE 02:31:56 10° SE
Meteor 1-25 Rocket 4.1 02:23:39 10° NNW 02:29:30 78° W 02:33:00 25° S
Gbstr 26 Del rocket 4.4 02:27:26 30° W 02:31:57 75° SSW 02:39:30 10° ESE
Cosmos 405 Rocket 4.4 02:28:16 10° NNW 02:30:08 24° NW 02:30:08 24° NW
ASTEX 1 3.8 02:28:05 10° N 02:33:04 63° E 02:36:22 21° S
IRS-P3 4.0 02:28:15 10° NNE 02:33:38 84° WNW 02:35:28 43° SSW
Cosmos 389 Rocket 4.2 02:32:19 21° SE 02:33:52 31° E 02:37:03 10° NNE
Cosmos 1697 Rocket 2.9 02:32:34 35° S 02:34:55 65° ESE 02:40:29 10° NE
H-2A R/B 2.7 02:34:06 10° SSE 02:38:24 57° ENE 02:42:48 10° N
CZ-4C R/B 3.9 02:32:44 10° WNW 02:38:28 37° N 02:45:15 10° ENE
Cosmos 1980 Rocket 3.2 02:35:19 18° S 02:39:08 42° ESE 02:44:27 10° NE
USA 267 3.3 02:32:46 10° ENE 02:39:18 68° SSE 02:42:17 35° SW
NOSS 2-1 (E) 4.3 02:40:33 31° NW 02:41:03 33° NNW 02:44:51 10° NE
ERS-2 3.8 02:38:27 10° SE 02:41:49 35° ENE 02:45:11 10° N
Cosmos 2221 4.5 02:42:57 16° NW 02:42:57 16° NW 02:45:02 10° NNW
Cosmos 1602 3.5 02:38:39 10° NNW 02:42:31 86° W 02:43:13 58° S
ERS-1 4.5 02:38:11 10° NNE 02:43:21 89° ESE 02:45:42 34° SSW
Cosmos 2263 Rocket 2.6 02:38:17 10° NNW 02:43:56 66° NE 02:49:35 10° SE
SL-8 R/B 4.1 02:46:01 42° SSW 02:46:09 42° SSW 02:50:38 10° ESE
Meteor 1-14 Rocket 4.2 02:40:35 10° NNW 02:46:18 87° ENE 02:51:52 10° SSE
Cosmos 1818 3.8 02:46:11 39° W 02:48:01 60° NW 02:53:27 10° NE
ATLAS 2AS CENTAUR R/B 3.6 02:42:55 10° NW 02:50:31 54° NNE 02:57:35 10° ESE
Cosmos 1821 Rocket 4.1 02:46:37 10° NNW 02:52:45 54° W 02:56:29 23° SSW
USA 307 3.9 02:52:25 31° S 02:53:29 36° SSE 02:57:24 10° E
Cosmos 1470 Rocket 3.6 02:49:56 10° NNW 02:54:16 55° W 02:55:25 42° SW
Cosmos 2227 4.3 02:49:13 10° NNW 02:54:56 80° ENE 03:00:35 10° SE
Spot 4 Rocket 4.0 02:51:04 10° NNE 02:56:15 81° ESE 02:59:44 21° SSW
USA 308 3.8 02:55:23 31° S 02:56:34 37° SSE 03:00:31 10° E
Cosmos 1500 3.7 02:55:28 10° N 02:59:18 61° ENE 03:03:06 10° SSE
Cosmos 1666 4.4 03:01:31 10° N 03:05:07 35° ENE 03:08:39 10° SE
Meteor 1-5 Rocket 4.3 03:00:25 10° N 03:05:45 73° ENE 03:11:06 10° SSE
Landsat 5 3.5 03:01:56 10° SSE 03:06:28 82° WSW 03:10:58 10° NNW
Cosmos 1934 Rocket 3.9 03:01:52 10° NNW 03:07:52 66° W 03:13:52 10° S
Cosmos 1777 Rocket 4.4 03:03:53 10° NW 03:08:42 38° WSW 03:12:06 18° SSW
Cosmos 2227 Rocket 4.0 03:05:49 10° WNW 03:06:57 14° WNW 03:06:57 14° WNW
Cosmos 1238 Rocket 4.0 03:03:27 10° NNW 03:10:05 72° W 03:16:22 10° S
Cosmos 1782 2.7 03:10:11 29° SSW 03:12:07 74° WNW 03:16:11 10° N
Cosmos 1898 Rocket 4.0 03:07:28 10° NNW 03:12:42 64° ENE 03:17:56 10° SE
Cosmos 1656 4.1 03:12:05 28° WSW 03:14:35 47° NW 03:19:57 10° NNE
Lacrosse 5 2.1 03:12:00 27° SW 03:14:39 62° SE 03:19:40 10° ENE
CZ-2C R/B 2.6 03:12:17 10° NNE 03:16:03 89° E 03:18:32 21° SSW
CZ-4B R/B 2.8 03:14:10 10° SE 03:17:08 38° ENE 03:20:11 10° N
ADEOS Rocket 3.4 03:10:24 10° SSE 03:17:08 73° ENE 03:23:12 10° NNW
USA 234 3.7 03:11:21 10° SSE 03:17:18 37° SW 03:23:17 10° WNW
ADEOS II 3.0 03:12:48 10° N 03:17:25 32° WNW 03:19:23 24° W
Cosmos 1515 Rocket 3.6 03:15:08 25° SSW 03:17:41 65° WNW 03:22:08 10° N
USA 276 2.9 03:21:38 33° SSW 03:22:21 39° S 03:25:24 10° E
Nadezhda 3 Rocket 4.2 03:18:39 22° SW 03:22:26 49° WNW 03:28:24 10° N
MSX 3.8 03:20:57 10° NNE 03:26:46 79° WNW 03:32:32 10° SSW
Cosmos 1356 3.8 03:23:30 10° NNW 03:26:47 41° W 03:28:27 23° SSW
Cosmos 972 Rocket 4.0 03:24:15 24° SW 03:27:06 57° WNW 03:32:01 10° NNE
IRIDIUM 103 4.3 03:23:04 10° N 03:28:20 88° E 03:33:34 10° S
Cosmos 44 3.8 03:24:49 15° SSW 03:28:22 51° SE 03:32:56 10° NE
Cosmos 1328 Rocket 4.4 03:28:50 25° WSW 03:30:30 33° WNW 03:34:35 10° N
IDEFIX/ARIANE 42P 2.8 03:25:26 10° N 03:30:35 53° WNW 03:34:28 17° SW
Cosmos 1605 Rocket 4.0 03:24:17 10° NNW 03:30:39 69° W 03:37:00 10° S
Meteor 1-11 Rocket 4.0 03:25:00 10° NNW 03:30:53 77° ENE 03:36:36 10° SSE
Cosmos 1933 Rocket 4.1 03:27:34 10° NNW 03:31:33 34° W 03:34:17 17° SSW
Cosmos 921 Rocket 3.4 03:28:17 10° S 03:32:24 59° ESE 03:36:32 10° NNE
Cosmos 2278 3.7 03:28:10 16° SSW 03:32:48 85° WNW 03:38:33 10° NNE
CZ-3B R/B 2.6 03:32:05 25° WSW 03:34:08 88° NNW 03:45:17 10° ENE
Cosmos 1606 4.5 03:34:14 16° WNW 03:34:30 16° WNW 03:36:56 10° NNW
Cosmos 2228 Rocket 3.0 03:31:25 10° SSW 03:35:49 79° WNW 03:40:15 10° N
SAR-Lupe-4 4.1 03:35:14 10° SSE 03:38:47 62° ENE 03:42:22 10° N
ARIANE 5 R/B 3.2 03:34:19 10° N 03:39:01 37° WNW 03:42:10 18° WSW
Cosmos 1151 Rocket 4.2 03:37:30 21° W 03:39:01 26° WNW 03:42:43 10° N
Cosmos 2369 3.9 03:36:40 19° SW 03:40:50 58° NW 03:46:31 10° NNE
CZ-2D R/B 4.1 03:38:37 10° NNW 03:41:02 13° NW 03:43:22 10° WNW
Cosmos 1937 Rocket 3.6 03:36:40 10° NNW 03:41:51 77° ENE 03:47:00 10° SSE
CZ-4C R/B 3.9 03:42:39 13° SSW 03:45:20 29° W 03:48:31 10° NW
ALOS 3.8 03:41:20 10° NNE 03:45:43 38° E 03:50:04 10° SSE
Cosmos 1733 Rocket 3.8 03:41:26 10° N 03:45:45 55° ENE 03:50:02 10° SSE
IRIDIUM 106 4.3 03:41:27 10° N 03:46:39 69° W 03:51:50 10° S
Cosmos 1536 3.1 03:45:28 10° N 03:49:34 76° ENE 03:53:38 10° SSE
Cosmos 1869 Rocket 3.7 03:46:24 10° NNW 03:50:38 50° W 03:54:50 10° S
SAR-Lupe-1 4.2 03:47:31 10° SSE 03:51:05 80° ENE 03:54:41 10° NNW
ATLAS 5 CENTAUR R/B 3.2 03:49:28 11° WNW 03:53:17 29° NNW 03:57:53 10° NE
Resurs 1-4 Rocket 4.2 03:53:21 10° NNW 03:54:22 11° NW 03:55:21 10° NW
Cosmos 1484 Rocket 4.1 03:50:48 10° NNE 03:54:38 44° E 03:58:28 10° S
Meteor 1-4 Rocket 2.4 03:54:32 10° S 03:58:00 87° E 04:01:33 10° NNE
USA 305 3.0 03:58:51 15° WSW 04:02:21 71° SSE 04:06:37 10° ENE
X-37B 2.6 04:01:25 13° SW 04:03:03 17° S 04:05:14 10° SE
Cosmos 2100 Rocket 4.1 03:58:52 10° NNW 04:05:17 86° W 04:11:41 10° S
Meteor 1-31 Rocket 3.9 04:01:44 10° NNE 04:05:26 45° E 04:09:07 10° S
Cosmos 1689 Rocket 2.6 04:02:36 10° SSE 04:05:31 62° ENE 04:08:30 10° N
SJ 16-02 2.0 04:02:27 10° NW 04:06:25 34° WSW 04:10:22 10° SSW
USA 306 3.0 04:02:46 14° WSW 04:06:26 74° SSE 04:10:41 10° ENE
Cosmos 1802 Rocket 4.2 04:01:26 10° N 04:07:39 78° E 04:13:52 10° SSE
PSLV R/B 3.6 04:03:50 10° N 04:08:00 57° WNW 04:12:06 10° SSW
Cosmos 1763 Rocket 4.0 04:03:12 10° SSW 04:08:27 65° ESE 04:13:44 10° NNE
Cosmos 1727 Rocket 4.0 04:02:13 10° SSW 04:08:34 79° W 04:14:57 10° N
Cosmos 389 Rocket 3.7 04:06:12 13° WSW 04:08:36 25° WNW 04:11:38 10° N
Cosmos 2360 Rocket 4.1 04:08:14 10° SSE 04:13:13 33° ESE 04:18:13 10° NE
H-2A R/B 3.3 04:11:20 10° SW 04:14:43 22° W 04:18:11 10° NW
ERS-2 3.1 04:12:20 10° SSW 04:15:26 25° W 04:18:33 10° NW
CZ-2C R/B 2.6 04:10:34 10° N 04:15:34 60° WNW 04:20:39 10° SSW
NOSS 3-4 (A) 3.8 04:10:58 10° NW 04:17:47 74° SW 04:25:24 10° SE
NOSS 3-4 (C) 3.8 04:11:05 10° NW 04:17:54 74° SW 04:25:31 10° SE
PAYLOAD A 4.1 04:14:34 10° N 04:19:08 48° WNW 04:23:38 10° SW
Cosmos 1697 Rocket 3.6 04:14:19 10° WSW 04:19:18 33° NW 04:24:24 10° NNE
USA 267 3.4 04:15:54 10° ENE 04:22:26 73° NNW 04:28:57 10° W
Cosmos 2278 Rocket 4.1 04:18:09 10° NNW 04:23:06 30° NE 04:28:02 10° E
Cosmos 1980 Rocket 2.6 04:17:39 10° WSW 04:23:08 47° NW 04:28:37 10° NNE
FENGYUN 3A 3.9 04:17:49 10° NNE 04:23:14 78° ESE 04:28:39 10° SSW
Cosmos 1844 4.0 04:18:22 10° NNW 04:23:59 72° NE 04:29:32 10° SE
SJ-6F 4.4 04:20:48 10° N 04:24:56 69° WNW 04:29:00 10° SSW
Cosmos 1459 Rocket 3.9 04:20:57 10° NNW 04:27:04 68° W 04:33:03 10° S
Cosmos 2263 Rocket 3.0 04:22:45 10° NW 04:27:29 28° WSW 04:32:13 10° SSW
CZ-4C R/B 3.4 04:21:32 10° NW 04:28:11 63° NE 04:36:05 10° ESE
Cosmos 2322 Rocket 2.7 04:22:43 10° SSW 04:28:20 68° ESE 04:34:02 10° NE
NOSS 3-3 (A) 4.1 04:24:08 10° SW 04:30:05 90° SE 04:36:58 10° NE
NOSS 3-3 (C) 4.1 04:24:19 10° SW 04:30:12 89° SE 04:37:02 10° NE
Cosmos 1812 3.6 04:29:29 10° SW 04:32:55 30° WNW 04:36:21 10° N
Cosmos 468 Rocket 4.0 04:27:48 10° SSW 04:33:06 78° WNW 04:38:25 10° NNE
USA 307 2.9 04:29:01 10° WSW 04:33:18 86° SSE 04:37:33 10° E
Cosmos 1844 Rocket 2.7 04:29:10 10° NNW 04:34:50 86° WSW 04:40:30 10° SSE
SL-16 R/B 2.3 04:30:20 10° SSW 04:36:01 87° ESE 04:41:45 10° NNE
USA 308 2.9 04:32:06 10° WSW 04:36:23 87° SSE 04:40:40 10° E
ATLAS CENTAUR R/B 2.9 04:31:29 10° WNW 04:41:34 84° SSW 04:45:26 10° ESE
